EW0596 Weather Reports


time (UTC)temp
C
wind
direction
speed
KPH
gust
KPH
rain 1hr
cm
rain 24hr
cm
rain mn
cm
humidity
%
barometer
mb
20210920051543 7 68 1.6 11.3 0.00 0.00 0.00 95 1020.8
20210920050030 7 56 1.6 4.8 0.00 0.00 0.00 95 1020.3
20210920044605 7 5 0.0 0.0 0.00 0.00 0.00 95 1020.6
20210920043039 7 5 0.0 1.6 0.00 0.00 0.00 95 1020.4
20210920041522 6 5 1.6 6.4 0.00 0.00 0.00 94 1020.1
20210920040020 7 5 0.0 1.6 0.00 0.00 0.00 94 1019.9
20210920034529 7 5 0.0 1.6 0.00 0.00 0.00 94 1019.7
20210920033013 7 5 0.0 0.0 0.00 0.00 0.00 93 1019.5
20210920031502 8 5 0.0 0.0 0.00 0.00 0.00 93 1019.5
20210920030006 8 5 0.0 3.2 0.00 0.00 0.00 93 1019.6
20210920024640 8 5 0.0 4.8 0.00 0.00 0.00 94 1019.2
20210920023130 8 334 0.0 3.2 0.00 0.00 0.00 93 1018.6
20210920021641 8 315 0.0 1.6 0.00 0.00 0.00 93 1018.3
20210920020135 8 315 0.0 3.2 0.00 0.00 0.00 92 1018.1
20210920014554 8 315 0.0 1.6 0.00 0.00 0.00 92 1017.9
20210920013103 8 315 0.0 0.0 0.00 0.00 0.00 91 1018.0
20210920011553 9 315 0.0 0.0 0.00 0.00 0.00 91 1017.8
20210920004619 9 315 0.0 3.2 0.00 0.00 0.00 89 1017.3
20210920003008 9 315 3.2 8.0 0.00 0.00 0.00 89 1017.1
20210919234539 9 300 0.0 11.3 0.00 0.00 0.00 92 1017.0
20210919233042 9 199 0.0 4.8 0.00 0.00 0.00 92 1016.9
20210919214527 15 251 4.8 16.1 0.00 0.00 0.00 64 1014.8
20210919213043 15 259 3.2 12.9 0.00 0.00 0.00 71 1014.6
20210919210009 14 232 1.6 14.5 0.00 0.00 0.00 71 1014.4
20210919204618 14 189 1.6 11.3 0.00 0.00 0.00 74 1014.5
20210919203034 13 248 3.2 12.9 0.00 0.00 0.00 75 1014.5
20210919201513 13 242 3.2 9.7 0.00 0.00 0.00 77 1014.5
20210919194511 12 236 1.6 8.0 0.00 0.00 0.00 81 1014.6
20210919193019 12 271 4.8 9.7 0.00 0.00 0.00 83 1014.5
20210919191637 12 302 0.0 8.0 0.00 0.00 0.00 84 1014.4
20210919184516 11 259 1.6 8.0 0.00 0.00 0.00 88 1014.2
20210919183144 11 271 3.2 9.7 0.00 0.00 0.00 87 1014.2
20210919180127 10 207 0.0 6.4 0.00 0.00 0.00 92 1013.9
20210919174639 10 296 3.2 9.7 0.00 0.00 0.00 93 1013.9
20210919163155 9 233 0.0 4.8 0.00 0.00 0.00 96 1013.3
20210919161522 9 258 0.0 1.6 0.00 0.00 0.00 96 1013.0
20210919160003 8 263 0.0 9.7 0.00 0.00 0.00 96 1012.9
20210919150120 8 250 0.0 1.6 0.00 0.00 0.00 97 1012.5
20210919144511 8 250 0.0 3.2 0.00 0.00 0.00 97 1012.4
20210919143008 8 283 0.0 1.6 0.00 0.00 0.00 97 1012.3
20210919141523 8 283 0.0 3.2 0.00 0.00 0.00 97 1012.2
20210919140003 8 283 0.0 1.6 0.00 0.00 0.00 97 1012.0
20210919134615 8 283 0.0 0.0 0.00 0.00 0.00 97 1011.7
20210919133117 8 283 0.0 1.6 0.00 0.00 0.00 97 1011.5
20210919130125 8 283 0.0 0.0 0.00 0.00 0.00 97 1011.3
20210919123113 8 283 0.0 1.6 0.00 0.00 0.00 97 1010.9
20210919120013 8 273 0.0 1.6 0.00 0.00 0.00 97 1010.9
20210919114536 8 272 0.0 1.6 0.00 0.00 0.00 96 1010.8
20210919113116 8 286 0.0 1.6 0.00 0.00 0.00 97 1010.8
20210919111559 8 286 0.0 6.4 0.00 0.00 0.00 97 1010.7
20210919110054 9 269 0.0 6.4 0.00 0.00 0.00 97 1010.6
20210919104555 9 173 0.0 3.2 0.00 0.00 0.00 97 1010.4
20210919103022 9 166 0.0 0.0 0.00 0.00 0.00 97 1010.3
20210919101529 9 166 0.0 0.0 0.00 0.00 0.00 97 1010.3
20210919100010 9 166 0.0 0.0 0.00 0.00 0.00 97 1010.4
20210919093038 9 47 1.6 6.4 0.00 0.00 0.00 97 1010.4
20210919091625 9 40 0.0 1.6 0.00 0.00 0.00 96 1010.4
20210919084620 9 40 0.0 3.2 0.00 0.00 0.00 96 1010.3
20210919083034 9 40 0.0 1.6 0.00 0.00 0.00 96 1010.1
20210919074625 9 296 0.0 0.0 0.00 0.00 0.00 96 1010.1
20210919073133 9 296 0.0 0.0 0.00 0.00 0.00 96 1010.2
20210919070126 9 275 0.0 0.0 0.00 0.00 0.00 96 1010.3
20210919064625 8 275 0.0 0.0 0.00 0.00 0.00 96 1010.1
20210919061556 9 275 0.0 1.6 0.00 0.00 0.00 96 1010.1
20210919060019 9 275 0.0 1.6 0.00 0.00 0.00 96 1009.9
20210919054501 9 275 0.0 0.0 0.00 0.00 0.00 96 1009.8